GFSNGP_850_spd_000.txt.gz
Wind_Speed
17 19 20 23 24 24 23 20 18 23 22 22 19 20 17 21 23 28 31 26 27 33 34 32 35 32 26 28 23 16 12 12 12 15 19 17 13 13 19 23 28 28 31 31
9 19 20 20 23 26 25 21 21 20 21 16 26 22 23 29 31 30 22 23 33 31 33 37 32 27 24 23 17 13 13 16 21 14 12 12 14 18 25 26 27 30 29 31
7 10 12 11 15 15 13 17 17 15 21 19 16 18 22 31 30 19 25 32 31 32 39 31 27 22 27 19 14 16 18 21 11 10 10 14 17 22 24 27 27 29 31 29
4 3 6 7 21 24 21 16 17 19 20 14 19 31 33 27 23 26 28 37 39 38 30 26 31 31 34 24 13 18 14 9 8 9 12 15 20 24 25 27 29 30 29 28
3 9 18 15 18 11 18 13 15 11 19 30 32 34 24 18 27 32 36 31 35 28 28 29 30 33 25 17 17 7 9 6 8 11 15 19 22 23 27 29 28 27 27 29
4 13 15 2 17 27 15 15 13 21 25 23 21 13 12 29 28 27 26 27 25 28 29 36 28 14 6 7 7 8 8 8 10 13 16 19 21 26 27 24 27 28 35 29
10 9 9 14 20 16 7 5 28 22 25 27 14 14 32 36 28 26 26 25 23 20 33 17 7 5 8 10 11 5 6 10 13 14 17 20 22 24 24 27 29 28 26 33
4 5 10 3 9 3 16 28 29 27 25 26 30 28 28 30 23 27 25 27 20 27 12 7 6 7 8 6 4 7 15 15 15 16 19 21 21 25 24 26 24 25 33 34
9 8 27 39 37 29 42 33 36 28 32 23 30 31 28 27 25 21 24 19 26 10 7 8 8 5 6 9 12 16 16 15 19 21 22 20 23 22 23 22 24 31 30 35
15 17 31 35 43 39 33 32 32 30 25 30 29 27 29 25 21 18 19 25 11 7 7 9 6 5 7 9 14 17 18 19 21 21 20 23 21 19 20 24 25 31 33 31
22 29 32 32 30 35 36 35 20 27 19 21 26 29 26 21 19 19 23 10 6 7 9 9 6 10 10 13 16 18 19 20 18 19 22 20 17 18 20 21 25 28 27 28
18 32 28 38 39 38 32 19 23 21 21 24 26 22 18 18 23 17 10 7 7 9 9 6 9 11 13 17 18 20 21 20 20 19 17 18 19 21 21 21 24 23 23 24
27 43 47 41 33 27 24 22 21 22 22 20 16 18 20 16 12 10 10 10 9 8 6 8 11 13 12 18 20 20 21 19 18 15 18 19 19 23 25 26 24 22 24 25
42 35 21 20 21 21 17 19 24 22 16 15 16 17 13 10 10 10 11 8 8 6 6 10 11 10 14 20 21 22 22 19 14 19 22 17 20 21 22 24 27 25 24 25
20 21 17 17 18 21 21 23 24 18 14 16 14 16 12 10 12 13 10 12 11 8 6 11 13 14 16 18 21 20 19 19 18 24 20 16 18 20 19 23 22 22 24 25
13 13 12 15 20 22 24 26 20 15 17 11 14 14 12 12 15 14 10 15 14 12 12 13 14 17 19 22 20 16 11 15 18 22 16 17 18 19 18 21 19 20 21 23
7 12 17 19 22 25 26 23 18 23 14 14 14 14 16 14 14 14 15 16 15 13 14 15 16 16 18 22 19 13 13 16 15 16 17 17 17 18 16 18 17 17 17 18
12 15 19 21 23 26 28 26 28 20 15 14 14 15 15 14 15 16 16 16 15 15 15 15 14 17 20 21 18 15 12 14 13 13 14 17 16 15 15 16 15 15 15 16
15 20 24 25 26 26 28 27 26 20 17 13 12 14 16 17 17 16 15 15 15 15 15 17 16 16 19 18 16 13 11 14 14 11 15 16 12 14 14 13 15 13 12 14
24 25 25 27 30 28 28 28 23 17 14 9 12 17 16 15 14 13 13 14 13 13 16 17 16 17 18 17 15 15 11 17 15 12 12 12 13 13 12 12 13 13 11 11
29 30 29 26 26 27 26 24 22 15 11 9 15 14 13 12 12 13 14 15 13 16 18 17 15 15 16 14 16 15 16 17 12 13 11 12 11 10 11 11 11 12 12 10
35 30 27 27 28 29 30 28 23 9 9 13 13 11 10 10 13 13 12 13 14 16 16 16 13 12 13 16 16 14 14 14 13 10 10 11 10 9 9 9 8 10 10 10
32 27 30 29 29 30 29 22 14 8 12 13 10 9 10 11 11 12 11 14 16 15 16 15 14 14 12 12 11 12 14 14 12 10 10 9 9 9 7 10 6 9 9 7
28 29 31 28 26 29 24 17 10 11 12 9 8 9 10 9 10 8 13 17 15 13 14 15 14 13 11 10 10 12 13 12 10 10 11 10 9 7 8 8 6 7 8 5
29 29 31 30 27 22 17 12 11 13 10 8 8 10 9 9 13 15 16 15 13 14 15 16 14 12 12 12 12 13 14 12 11 11 10 8 10 6 5 8 7 7 6 5
29 32 36 28 21 14 12 13 13 10 7 7 7 11 11 12 15 17 13 10 12 13 13 13 14 15 13 13 13 14 13 13 13 11 9 9 8 7 6 7 6 5 5 4
30 30 25 19 14 15 16 11 11 10 11 10 9 10 11 13 15 14 9 10 10 11 11 13 13 14 14 13 12 14 13 12 12 11 11 10 9 7 7 6 5 4 3 2

GFSNGP_850_spd_003.txt.gz
Wind_Speed
8 7 10 14 19 20 15 17 12 23 18 12 8 6 12 18 23 21 15 19 30 34 35 37 36 27 26 29 36 28 20 13 9 11 12 13 13 15 13 15 21 25 26 28
6 11 10 8 20 21 19 14 10 14 19 7 13 22 22 22 24 20 22 30 36 36 35 33 28 25 31 36 30 22 15 16 13 12 15 18 17 14 13 20 24 25 31 29
15 4 5 7 13 4 6 14 13 8 4 19 18 24 22 24 18 19 27 32 34 32 34 27 22 29 35 36 31 23 20 18 22 24 19 11 7 9 21 25 29 31 31 33
4 3 4 8 14 21 16 9 7 8 14 19 20 23 27 29 17 29 37 32 31 31 28 24 32 33 37 25 15 15 11 7 7 4 4 4 14 20 24 27 29 32 30 26
2 3 8 9 9 3 11 17 4 8 20 25 25 29 17 13 22 29 27 26 28 25 24 35 30 31 14 11 10 11 10 2 3 4 12 15 19 22 24 28 30 26 26 29
1 4 7 8 3 11 12 11 8 21 11 21 20 10 11 24 31 28 26 24 19 25 31 27 23 10 10 14 6 3 5 5 7 14 19 19 20 23 25 26 25 27 27 26
2 5 7 7 9 6 4 9 19 9 15 20 9 14 24 29 24 26 18 16 24 28 23 16 8 6 8 7 5 6 9 15 20 18 19 20 23 24 23 24 23 21 23 28
3 4 8 2 4 3 8 16 23 17 16 27 27 20 27 24 24 12 18 24 27 24 12 9 8 5 1 6 10 17 19 19 19 20 21 21 20 21 21 20 21 25 31 33
9 6 9 25 25 31 36 36 31 25 24 15 24 23 23 25 16 19 23 25 24 9 10 9 7 7 9 13 14 14 19 20 19 19 19 19 22 20 19 20 26 28 32 31
7 10 24 28 42 39 35 29 29 19 22 16 19 19 20 16 21 27 30 22 9 7 7 7 8 9 12 13 15 18 19 19 19 18 19 19 16 17 19 23 26 29 28 28
13 24 33 31 28 33 32 23 22 21 9 13 17 17 17 20 27 29 22 11 8 6 8 7 10 12 13 16 18 19 20 20 19 17 16 16 18 18 20 22 19 25 24 25
16 30 25 35 27 31 18 16 13 13 14 10 16 20 20 27 24 18 12 14 9 9 7 10 11 14 16 17 18 20 21 19 17 15 16 23 21 20 16 18 20 22 17 21
27 31 37 33 23 16 18 15 17 22 26 23 15 19 28 21 16 13 12 10 6 9 11 14 15 16 14 17 19 21 22 18 17 16 21 25 17 17 23 21 22 19 19 23
42 39 21 8 8 11 14 17 20 19 16 21 21 20 18 18 14 13 11 9 13 12 12 14 14 13 14 16 18 20 19 17 19 18 20 21 15 18 19 21 25 22 21 23
19 9 7 9 14 16 14 14 18 19 20 22 19 17 12 12 12 13 12 14 15 13 11 14 15 13 15 15 19 20 16 16 14 16 21 17 17 17 19 18 20 20 21 22
8 5 7 10 15 20 22 22 22 24 26 27 16 14 13 14 15 14 14 15 16 15 13 13 14 15 16 16 19 21 16 16 17 19 17 16 17 19 16 17 19 18 19 21
10 7 9 15 18 24 23 21 27 28 29 25 18 17 14 13 12 13 14 15 14 12 13 15 17 15 15 15 20 18 16 13 15 16 13 15 18 16 15 17 17 15 16 17
7 12 16 21 24 26 29 31 30 30 29 26 19 15 12 13 16 15 14 12 11 12 13 13 13 15 15 16 18 15 14 13 14 14 12 15 15 14 15 15 15 15 14 15
6 18 21 25 24 26 28 30 28 28 27 22 18 10 11 14 15 13 11 11 12 13 14 15 16 13 13 15 13 14 14 12 16 14 12 13 13 13 13 14 14 14 12 13
23 24 26 24 22 22 25 25 28 28 25 20 10 11 14 14 12 11 12 11 11 12 13 15 13 11 12 12 12 16 17 16 14 12 13 12 13 12 12 13 12 13 13 12
23 25 31 28 27 27 24 22 26 26 24 16 8 11 13 12 11 11 12 12 10 12 14 13 11 10 11 10 12 16 14 14 13 14 11 12 13 11 10 11 11 11 13 11
24 31 33 29 26 29 28 26 27 24 18 8 9 13 11 8 10 10 9 8 11 13 12 12 11 12 11 8 10 11 12 13 13 11 12 12 12 10 10 10 9 10 12 10
30 34 30 29 28 28 31 31 25 18 12 7 12 10 8 9 8 9 9 9 13 10 11 11 12 11 10 9 8 9 12 13 13 13 12 13 11 10 8 10 9 10 11 9
35 31 30 31 34 31 34 32 19 13 9 8 11 8 8 8 8 7 9 14 11 10 10 12 13 12 9 9 10 9 12 13 12 12 12 13 11 12 9 9 10 10 11 7
35 32 32 31 31 32 30 22 15 12 8 10 10 8 8 8 9 10 11 9 9 9 11 10 11 13 12 10 9 9 12 13 12 12 12 12 12 11 9 9 11 9 7 6
34 37 35 32 25 28 22 18 13 9 9 9 8 9 10 10 10 10 8 7 7 8 9 10 11 12 12 12 11 10 11 11 12 11 11 9 10 11 9 8 9 7 4 4
35 34 32 29 29 29 22 16 15 15 11 11 12 12 11 11 11 9 9 8 7 8 10 10 9 11 12 13 13 13 12 11 11 12 13 12 11 11 10 9 8 5 4 3

GFSNGP_850_spd_006.txt.gz
Wind_Speed
7 8 5 16 17 16 11 14 6 10 10 12 4 2 8 11 11 16 16 18 27 30 34 32 31 29 30 27 35 39 38 24 17 15 14 12 9 9 10 13 12 16 22 23
11 7 8 17 15 13 13 14 9 9 14 2 12 11 15 16 23 23 18 27 32 29 30 31 30 28 25 32 36 32 22 16 13 14 14 16 16 20 8 10 14 20 23 27
6 5 5 10 8 6 5 7 7 6 6 5 6 13 19 28 29 23 24 31 35 31 29 28 30 28 31 31 24 16 13 12 10 12 12 11 6 5 8 14 20 25 26 30
3 1 4 9 6 7 6 8 6 3 5 9 8 19 21 23 21 21 29 32 32 29 29 27 29 30 26 13 11 9 6 7 8 8 8 7 9 12 19 23 24 28 29 27
1 2 7 11 10 2 2 8 5 5 9 16 26 28 16 17 16 25 31 29 24 23 24 31 29 25 14 14 13 8 5 3 5 7 11 19 27 26 23 25 27 26 27 28
2 4 5 8 5 6 5 6 8 8 12 17 17 10 12 24 20 25 26 19 16 22 28 27 20 15 10 5 5 8 10 15 18 19 15 17 20 22 23 23 24 25 25 23
1 6 8 9 12 2 4 8 10 22 25 25 8 16 23 18 21 20 14 20 26 30 31 18 14 11 7 2 6 11 16 18 16 19 20 21 20 19 21 22 23 23 25 28
3 3 8 5 3 2 9 16 30 35 29 15 16 14 16 17 18 16 22 26 32 28 13 15 17 6 3 12 16 13 14 18 19 19 19 19 19 21 19 20 21 26 30 31
8 7 4 8 24 26 26 34 32 21 14 14 17 16 21 11 18 21 26 31 25 13 11 11 10 12 11 13 11 14 18 19 19 19 18 19 19 18 19 21 24 27 26 29
6 8 18 26 42 39 31 24 15 14 13 10 11 14 21 18 19 26 29 22 15 11 11 8 11 14 14 14 15 17 17 18 20 20 19 16 16 19 19 21 21 22 27 26
14 23 33 29 29 24 21 10 12 6 11 11 18 25 21 19 25 27 22 18 19 20 13 10 12 15 16 16 15 16 19 20 19 18 15 15 20 17 16 16 18 23 23 22
14 27 23 29 20 18 14 9 2 12 22 25 22 22 18 24 26 23 19 20 15 11 10 14 16 18 17 15 15 17 20 20 16 15 15 18 21 18 14 18 19 20 17 20
30 36 32 27 13 14 11 10 9 14 19 22 17 16 23 24 22 22 17 22 17 15 16 17 19 16 16 15 15 17 21 21 17 17 17 19 19 18 21 21 20 19 18 20
34 32 20 7 6 8 10 12 14 20 20 18 21 22 24 21 18 17 17 17 18 18 18 17 19 16 16 14 15 17 20 20 18 16 15 18 17 18 19 22 21 22 18 20
11 4 2 5 7 12 15 17 18 17 21 25 25 23 22 20 16 17 20 20 17 19 19 16 15 15 15 16 15 16 19 20 19 15 17 17 17 16 19 17 19 20 18 18
3 4 5 11 16 19 21 18 18 23 27 28 26 25 21 19 18 17 16 19 18 18 16 15 15 17 18 16 15 16 18 17 15 17 18 16 14 18 15 17 17 18 17 19
10 8 5 12 18 22 23 23 23 27 29 26 25 23 21 21 11 13 17 17 15 15 15 15 15 14 12 13 15 18 14 11 13 16 15 12 16 14 16 15 16 16 15 17
5 7 9 14 19 22 25 24 25 26 25 27 27 23 20 10 11 13 17 13 12 13 13 14 15 12 10 11 12 9 12 10 13 17 14 14 13 14 13 14 15 15 15 15
7 20 18 19 25 23 22 23 23 23 24 26 27 21 12 10 11 15 13 12 12 11 11 14 13 10 10 10 8 10 14 13 16 13 14 13 13 14 13 13 15 14 15 15
21 21 22 23 27 23 24 20 21 24 24 27 21 22 8 10 13 12 10 10 9 9 12 11 11 9 10 10 8 11 14 13 13 14 13 13 14 15 13 13 13 13 14 14
21 22 25 27 30 28 29 28 27 30 31 25 22 11 8 12 11 8 8 10 9 10 10 10 9 10 10 9 7 10 9 10 13 12 12 14 14 14 14 12 12 11 14 12
27 28 30 34 34 32 31 33 30 31 31 23 16 9 9 11 9 9 8 8 9 10 8 8 9 10 11 9 8 6 8 11 13 11 12 13 14 13 12 11 11 12 13 12
31 32 34 35 37 32 32 33 31 32 27 20 13 8 11 8 8 9 8 9 11 9 8 8 11 13 11 10 8 7 10 11 11 10 11 12 13 13 12 10 11 12 13 11
34 34 34 36 33 34 35 32 30 29 24 16 12 7 10 9 9 9 6 10 8 7 7 9 9 11 13 10 8 8 10 11 11 10 11 12 13 13 12 10 11 12 10 8
36 34 34 35 32 33 28 26 28 28 20 15 8 7 10 9 7 8 9 6 6 6 6 6 8 10 11 12 10 9 10 11 11 9 9 10 9 11 11 9 10 8 7 5
33 33 34 31 33 30 26 25 31 27 16 13 8 8 9 10 10 11 10 5 6 6 5 7 8 9 9 10 13 12 11 11 10 9 9 9 8 9 9 9 8 6 5 3
34 33 34 38 33 27 23 25 26 19 14 14 12 11 11 13 13 12 10 7 6 7 8 7 7 8 9 10 9 11 12 11 10 10 10 10 9 9 9 8 7 5 4 3

GFSNGP_850_spd_009.txt.gz
Wind_Speed
6 7 6 14 13 16 9 11 6 9 10 13 6 5 12 18 20 23 27 23 19 28 31 27 27 31 31 31 34 37 36 29 23 14 10 12 12 13 12 14 14 14 20 23
4 6 10 15 14 11 14 11 8 10 10 6 4 9 14 21 24 24 25 22 25 31 31 29 30 32 29 33 32 27 19 17 14 10 9 12 16 13 9 14 18 17 21 25
5 6 9 7 7 4 3 5 5 5 7 2 6 15 20 25 28 25 31 25 29 31 32 29 30 26 32 31 22 13 12 11 10 11 9 11 11 12 14 17 21 21 24 28
3 3 1 8 3 6 9 10 6 6 5 8 16 26 23 26 21 19 26 24 27 31 29 30 29 34 30 22 16 15 12 7 6 7 8 10 16 23 23 19 22 25 27 27
2 3 6 9 9 2 3 7 4 5 4 20 29 29 21 17 13 18 15 17 23 28 27 30 34 29 19 15 7 3 6 9 16 19 19 18 18 18 22 23 23 24 26 26
3 4 5 8 4 6 1 6 2 2 11 25 20 10 9 6 16 18 19 21 22 23 32 34 19 15 19 19 10 9 21 16 18 18 20 21 22 22 21 23 25 24 24 26
2 6 8 9 8 1 4 5 7 14 25 26 10 16 15 14 16 18 20 20 23 31 29 18 14 18 19 9 9 16 18 17 18 21 21 21 21 22 24 23 23 24 27 29
2 3 8 2 1 5 10 22 25 28 21 17 13 10 11 17 21 22 21 26 30 26 17 14 16 14 13 10 16 17 17 20 21 20 20 21 22 22 21 23 25 28 29 29
9 6 7 7 15 31 25 29 24 15 14 13 9 14 21 25 25 18 22 28 26 22 16 15 15 13 14 14 17 19 19 19 20 21 21 21 20 21 23 23 25 26 27 30
4 8 21 21 36 41 37 18 9 7 5 6 19 20 24 30 26 20 25 27 25 22 22 18 17 11 14 16 15 17 17 19 22 22 21 19 19 22 22 22 25 26 28 30
13 20 28 32 30 23 14 9 8 8 11 18 22 26 28 28 20 25 24 24 22 22 16 14 11 12 15 14 15 15 17 20 23 22 20 20 20 23 22 21 23 25 27 26
11 26 24 28 18 11 5 7 8 15 17 19 24 23 24 23 25 25 24 20 20 18 16 16 17 18 18 15 15 16 18 21 23 22 22 22 23 24 20 21 22 22 24 21
29 34 24 23 8 3 5 9 11 17 22 21 22 21 23 25 26 24 21 18 18 21 20 19 18 19 15 14 15 16 19 22 24 23 21 20 21 22 23 23 22 21 23 20
25 20 13 2 1 7 12 16 19 23 22 17 22 25 24 25 25 23 20 20 21 19 17 19 20 18 17 18 18 19 20 22 22 22 20 21 20 20 21 24 24 24 22 20
17 10 7 2 7 10 15 19 21 19 19 27 25 21 22 25 23 22 21 19 14 18 20 19 20 18 17 18 20 19 20 20 20 20 20 21 19 17 21 19 20 22 22 18
5 5 7 8 10 15 19 21 22 23 23 24 23 24 25 23 24 21 17 14 18 18 20 19 18 18 17 15 13 16 18 18 15 18 19 22 17 18 17 18 17 20 20 21
9 5 7 14 23 25 27 24 23 24 25 25 25 27 27 27 22 15 13 17 18 19 16 15 17 19 16 12 12 15 13 12 13 16 20 17 18 15 17 16 17 18 18 19
10 11 20 25 25 24 26 25 24 23 22 23 24 28 28 23 18 11 13 17 17 14 14 14 15 10 9 11 12 9 9 14 13 18 16 17 15 16 16 15 15 16 16 17
16 19 20 19 19 21 25 26 24 24 25 23 26 28 27 24 14 13 15 16 13 13 13 12 11 9 9 10 11 10 11 15 16 15 16 15 16 16 15 14 14 14 15 16
18 21 23 24 23 25 27 29 30 29 30 27 28 29 28 21 14 13 16 11 10 10 10 10 9 8 8 10 7 8 12 12 14 16 13 13 15 16 15 14 13 13 14 14
27 25 24 25 27 29 29 31 30 29 32 29 29 29 25 16 11 14 13 11 10 10 10 10 7 8 9 10 9 8 8 11 14 15 12 13 15 16 15 12 12 12 13 13
26 28 29 30 31 32 31 30 29 30 29 28 30 26 20 12 11 13 12 11 12 11 10 9 8 10 12 12 10 7 7 10 13 15 13 13 14 15 14 12 11 12 12 11
28 30 31 31 31 30 31 30 29 26 23 25 27 21 14 10 10 13 13 11 9 12 12 9 9 10 11 12 8 7 8 11 14 13 12 12 13 15 14 13 11 12 11 9
29 31 32 33 31 32 31 31 29 23 23 25 24 14 11 8 11 13 12 11 12 10 9 8 7 8 9 11 10 9 10 11 13 13 13 12 13 13 13 12 10 10 8 7
30 31 36 34 32 33 32 34 29 23 25 25 19 11 10 9 12 13 13 15 9 8 10 8 7 10 10 10 11 12 11 12 13 12 12 12 11 10 11 11 9 8 7 6
31 33 33 28 26 27 29 27 26 23 22 23 12 11 9 10 11 11 12 11 9 10 10 10 10 10 11 12 12 11 13 14 12 11 12 12 12 11 10 10 9 8 6 5
33 31 32 32 33 31 28 26 24 24 22 16 12 13 12 13 13 14 16 12 9 9 11 11 12 10 11 12 12 12 12 13 14 13 13 13 12 12 11 10 9 8 7 6

GFSNGP_850_spd_015.txt.gz
Wind_Speed
5 9 5 8 13 10 12 12 7 13 15 18 14 10 4 13 21 21 21 18 15 15 18 17 20 24 26 28 32 29 27 22 20 19 12 14 12 13 15 19 21 21 22 21
4 6 5 9 12 11 12 14 13 18 19 17 9 4 10 18 19 18 15 11 12 13 15 21 24 26 33 35 27 22 22 22 22 17 18 17 18 17 18 20 21 22 21 22
3 5 9 6 3 4 3 6 4 5 6 2 4 9 17 22 15 10 7 11 16 16 18 25 25 33 35 28 22 20 22 13 14 15 16 18 19 21 22 22 22 22 22 22
3 4 2 1 4 7 9 12 7 9 6 3 12 19 17 8 6 7 12 22 20 20 25 23 30 32 27 23 21 22 11 12 16 16 18 20 23 23 22 21 21 22 22 21
2 3 7 10 2 2 3 6 3 2 4 17 27 26 17 8 9 17 23 16 21 25 21 27 28 25 24 22 20 16 13 15 18 21 22 23 23 23 23 23 23 22 22 24
3 3 5 5 1 4 3 8 2 5 22 27 21 8 11 8 15 15 19 22 25 21 22 25 24 21 22 20 18 16 14 19 19 21 21 22 22 23 22 22 23 23 24 24
5 5 8 9 6 2 2 4 5 14 19 19 7 6 15 14 17 23 23 24 23 19 25 24 24 24 22 20 23 20 18 18 19 20 20 21 23 23 23 24 24 24 25 24
3 4 7 2 3 2 3 21 20 18 17 8 4 15 10 13 20 23 24 24 17 24 28 26 24 21 18 16 13 13 16 17 18 19 20 21 23 24 24 24 25 26 27 23
8 6 5 6 17 21 19 12 10 12 6 9 10 9 17 22 24 24 25 26 25 27 30 27 21 18 18 15 18 19 18 18 18 18 20 21 24 25 24 23 24 22 20 22
1 8 14 23 27 16 7 12 11 13 13 7 14 20 24 25 26 25 29 30 28 28 29 27 21 18 19 20 21 20 19 17 18 19 20 22 24 23 21 20 19 19 20 21
6 20 22 16 14 12 7 10 7 10 13 16 19 23 23 26 24 28 31 31 30 29 27 26 24 22 22 22 24 20 19 19 19 20 21 23 23 22 20 19 20 20 19 19
7 17 13 9 8 7 4 5 7 11 17 18 21 23 23 27 30 30 30 32 34 29 26 26 25 23 17 21 21 18 18 18 20 20 21 22 23 22 19 16 18 17 18 20
18 17 8 10 5 5 4 7 11 14 18 23 25 25 27 29 30 29 29 32 31 29 27 26 20 18 23 20 18 17 16 17 17 17 19 20 22 23 23 21 18 17 18 20
8 3 3 4 4 4 7 12 16 21 22 23 25 27 27 27 29 29 32 34 29 26 29 22 19 21 19 18 16 15 14 12 12 16 16 18 20 21 22 21 23 23 20 20
6 6 12 7 3 7 13 20 25 25 24 26 26 26 27 28 30 31 32 33 33 29 22 18 20 19 16 16 14 11 10 11 11 12 15 18 20 19 19 20 21 20 22 21
13 10 8 11 14 17 20 22 23 25 25 27 29 30 32 33 33 32 31 31 30 28 20 18 19 17 15 11 10 9 10 10 10 13 16 19 17 17 19 20 19 19 20 22
7 10 12 15 18 22 24 25 25 28 31 33 35 35 36 36 33 34 34 31 28 23 17 16 18 15 15 12 11 11 11 8 10 14 17 16 15 16 19 19 19 18 18 19
5 9 13 18 23 25 28 28 30 32 33 35 35 35 37 34 32 32 31 29 25 18 15 14 15 16 12 9 8 10 10 9 10 14 15 16 15 16 18 19 17 17 17 17
12 15 18 20 21 24 27 29 29 30 32 32 31 33 33 34 32 27 29 26 19 13 12 14 16 11 9 10 10 10 6 7 9 12 16 17 15 15 17 18 17 16 16 16
18 18 18 20 22 23 26 27 30 34 35 32 32 31 32 32 25 26 28 23 14 10 13 15 14 9 9 10 11 12 10 8 9 13 15 17 16 15 16 16 16 15 15 14
19 19 20 24 25 26 27 31 32 34 33 31 30 32 34 31 25 25 26 18 9 10 13 14 11 10 10 11 11 13 9 6 9 12 15 16 16 15 15 16 16 15 14 13
19 21 24 24 26 29 31 31 31 31 31 30 29 30 28 27 23 24 20 12 9 11 11 13 12 11 9 9 11 11 7 9 10 12 15 16 16 15 15 15 15 15 13 12
21 23 25 25 26 30 33 32 31 30 30 28 28 28 27 23 22 21 14 9 11 11 11 12 12 9 9 8 10 12 9 9 10 12 14 15 14 14 15 14 14 14 13 11
24 24 24 24 27 31 33 33 32 31 28 25 22 23 23 23 21 14 10 11 11 11 10 13 12 11 8 8 11 11 11 13 14 14 15 14 14 14 14 14 13 13 13 11
23 24 24 26 31 34 33 28 31 29 30 28 26 24 22 21 14 9 9 9 11 12 14 13 11 11 10 11 12 14 13 12 12 13 13 15 15 14 14 14 14 13 12 11
23 24 26 27 31 33 30 25 27 29 30 30 25 23 22 17 9 9 9 8 8 12 12 11 11 11 12 13 14 13 14 14 13 13 13 13 14 14 15 15 15 14 13 12
22 24 27 31 31 31 26 22 25 28 27 24 23 22 21 11 10 12 11 12 12 14 17 14 11 11 13 14 14 14 15 14 14 14 13 13 13 14 14 15 15 15 14 12

GFSNGP_850_spd_021.txt.gz
Wind_Speed
9 12 12 12 13 13 14 15 14 17 17 16 13 11 14 11 14 19 22 22 20 22 20 17 14 15 17 18 20 20 18 18 18 15 15 13 14 15 17 18 19 19 19 19
4 6 9 13 16 17 16 10 14 13 16 9 10 13 13 19 21 21 22 19 18 17 17 17 17 19 19 19 20 18 17 19 18 15 15 15 16 16 18 19 19 18 18 19
4 10 13 5 2 1 4 7 8 11 11 14 10 16 19 20 19 17 15 15 15 16 17 18 20 20 20 21 21 21 20 19 17 15 16 16 16 17 17 18 18 19 19 19
3 6 3 4 6 12 10 8 8 11 11 8 12 23 30 10 9 14 13 17 16 18 20 21 23 22 23 23 24 25 25 20 17 15 16 16 16 17 18 18 19 19 19 19
2 5 13 10 3 4 9 13 13 7 7 16 22 22 12 6 12 17 15 15 19 21 22 24 25 25 25 27 27 27 25 22 18 18 16 17 17 17 18 18 20 20 20 19
3 3 4 3 1 1 5 12 9 10 19 22 22 13 10 18 20 17 16 19 22 22 24 26 27 27 28 30 30 28 25 19 18 19 17 15 16 17 17 19 21 22 22 24
6 5 7 9 2 4 6 3 14 16 11 11 9 13 19 19 16 17 20 22 23 25 25 28 28 29 30 31 31 28 24 20 20 17 15 14 14 16 19 20 22 20 26 26
4 4 6 4 5 1 9 17 9 8 7 8 12 14 14 16 19 20 22 25 26 26 28 29 29 29 31 32 30 27 22 18 16 21 9 13 15 17 19 20 20 19 24 24
8 5 12 12 14 11 7 7 9 6 7 9 13 14 16 18 21 24 26 28 28 28 28 28 28 28 31 30 28 25 25 23 20 13 12 13 13 17 18 19 17 21 19 20
8 8 16 14 11 6 6 7 7 7 8 9 12 14 18 22 25 28 28 29 28 27 28 29 29 30 29 27 25 21 18 17 15 12 12 13 14 16 17 16 17 16 19 19
13 19 15 3 6 4 11 7 5 5 8 10 14 19 22 25 27 27 28 27 27 27 28 29 31 30 28 24 17 17 17 15 14 12 11 12 12 14 14 14 20 21 18 17
8 9 3 3 5 11 5 3 4 8 10 14 19 23 25 26 26 27 28 29 29 30 30 31 30 28 24 17 14 16 15 13 12 11 12 14 11 11 14 18 19 21 22 22
11 7 3 4 5 3 4 4 6 11 15 19 22 24 25 26 28 29 30 30 30 31 29 28 27 22 18 16 16 16 16 12 9 12 11 10 9 12 13 13 17 19 20 23
4 3 4 4 2 3 2 7 11 14 18 21 23 23 24 26 29 29 29 30 29 28 25 23 23 19 15 17 13 17 14 11 10 7 8 8 10 11 11 12 14 13 17 21
3 2 2 5 2 2 7 11 15 17 20 21 21 22 23 25 28 30 30 29 27 25 24 21 20 17 18 13 13 11 12 9 11 9 8 10 10 10 10 11 12 13 14 13
8 6 3 1 3 7 10 14 16 18 19 21 21 22 24 27 29 29 27 24 27 30 25 27 21 14 12 9 10 9 11 12 9 7 8 9 9 9 10 11 11 12 13 14
7 5 3 5 7 10 12 14 16 18 19 20 22 31 33 33 35 31 32 30 25 24 23 26 16 10 13 12 9 10 9 9 12 9 9 10 9 10 11 11 11 11 12 18
4 2 3 7 10 12 13 15 16 18 20 26 29 31 32 34 34 33 33 28 22 23 24 19 12 11 13 9 11 9 10 9 9 10 11 9 11 10 10 11 11 11 11 12
2 4 7 10 11 12 14 17 17 22 25 27 30 32 33 33 31 30 29 25 23 22 20 18 12 11 12 11 11 9 11 10 10 11 10 12 12 12 12 12 12 11 11 11
5 8 10 13 15 17 19 21 21 22 24 27 29 31 33 31 27 26 25 26 22 18 18 14 12 13 10 9 11 8 10 11 10 10 10 11 12 13 14 12 13 13 12 12
13 16 18 19 19 18 20 21 22 24 26 27 28 29 28 29 26 24 26 26 22 19 15 12 12 7 8 11 10 9 10 9 7 9 10 12 13 13 14 12 13 14 13 12
14 17 20 18 20 22 21 21 22 26 27 29 26 25 25 26 26 24 22 20 22 19 14 12 11 9 9 15 10 9 11 10 9 10 10 10 12 14 13 12 12 13 13 12
20 19 19 19 21 22 22 22 23 24 27 27 24 22 22 25 23 23 27 22 22 14 13 13 12 14 14 15 10 9 12 13 12 11 12 13 14 13 13 13 13 12 12 12
18 18 20 21 22 22 22 18 18 25 26 26 21 21 24 24 26 22 23 26 18 13 13 13 15 16 16 16 13 12 14 15 16 15 14 12 14 16 15 13 13 13 13 13
22 22 23 21 19 16 15 17 19 19 21 23 23 25 24 24 24 22 25 21 15 14 15 16 13 14 16 15 15 14 16 17 16 15 15 14 13 14 15 16 15 15 14 14
19 18 19 20 20 18 16 16 21 22 24 26 25 26 27 25 24 21 21 17 16 16 16 17 17 17 15 14 16 18 18 17 16 15 15 15 15 14 14 15 16 16 16 15
17 19 18 19 16 16 16 18 25 27 26 26 26 26 27 28 25 21 20 18 17 19 22 23 23 23 22 19 17 19 18 17 16 16 16 16 15 15 15 15 16 15 16 17

GFSNGP_850_spd_024.txt.gz
Wind_Speed
7 9 8 9 11 11 12 12 9 11 16 11 8 7 13 17 18 19 20 18 15 19 20 17 18 17 19 19 21 19 21 21 20 22 17 15 19 18 19 18 21 21 22 22
3 5 10 13 15 13 13 13 10 11 12 12 7 16 16 17 23 19 15 15 20 18 18 18 18 20 21 22 21 22 20 22 26 18 16 16 16 18 17 19 19 20 20 21
3 9 10 3 3 6 8 7 9 5 10 9 15 17 19 18 16 14 17 19 20 18 19 19 21 23 26 23 24 23 29 26 29 26 16 14 15 15 18 18 19 19 21 21
2 4 2 4 14 11 7 6 9 11 9 15 12 16 24 11 12 17 20 20 18 19 21 21 21 25 26 26 29 28 30 35 27 22 16 13 14 14 16 17 19 21 20 19
1 3 9 9 3 5 5 9 9 7 14 15 18 23 12 12 16 17 17 17 20 22 24 24 26 25 26 29 33 34 33 22 33 18 18 18 12 15 15 17 19 19 19 23
2 2 3 3 7 4 6 8 10 14 11 13 17 7 6 16 16 17 19 21 24 26 24 24 22 27 29 29 32 32 32 26 23 20 23 14 15 11 15 16 17 20 24 29
5 5 6 8 6 1 3 3 10 8 7 12 5 6 14 15 15 18 21 23 26 28 28 27 29 28 27 29 30 32 31 28 25 25 26 26 18 8 13 17 18 23 27 28
4 3 6 1 4 2 6 13 7 8 7 6 7 9 13 14 17 20 23 26 28 29 29 27 26 28 27 27 29 29 32 36 35 31 28 13 12 10 13 17 18 21 26 29
9 5 11 9 5 3 5 7 7 8 5 7 10 11 13 15 19 23 25 27 29 27 29 30 28 26 28 28 25 27 28 22 23 22 19 14 13 11 14 16 19 24 25 23
3 8 12 5 8 10 5 8 8 5 5 6 9 11 15 19 22 24 25 28 25 30 29 27 28 26 24 23 26 26 22 22 21 18 18 11 12 13 14 18 22 23 23 24
9 13 10 6 8 3 4 3 0 2 5 7 10 15 18 22 23 25 26 25 30 28 28 28 30 27 25 25 27 21 21 20 15 16 13 10 12 12 15 19 19 21 21 22
7 4 4 3 5 3 0 2 1 3 7 9 13 16 20 23 24 24 26 28 28 28 29 27 27 28 30 27 22 23 23 15 17 17 16 16 17 15 14 18 19 19 19 22
2 5 7 8 3 2 3 2 2 6 8 12 14 17 19 22 23 26 25 27 28 29 27 27 28 26 25 24 22 22 19 20 15 12 12 13 12 13 17 16 17 18 20 20
3 7 4 6 4 6 4 2 5 8 11 13 16 16 18 19 22 24 26 27 28 27 25 26 27 24 25 20 21 17 17 14 12 12 12 12 13 13 14 15 17 17 18 20
5 6 5 7 6 5 2 4 7 10 13 15 14 15 16 19 24 26 27 27 27 30 28 27 28 27 23 17 14 12 13 15 14 13 11 10 11 13 13 14 15 15 16 15
8 8 8 6 3 1 3 7 9 11 13 14 15 17 20 26 27 30 31 30 32 33 27 24 24 27 17 11 10 9 10 14 15 11 10 11 12 14 13 14 15 15 16 19
12 9 6 2 2 3 6 9 9 12 15 17 18 23 25 27 30 32 32 30 30 26 22 21 23 20 12 12 12 9 14 12 14 13 10 11 13 13 15 15 14 15 16 19
5 6 3 0 3 7 9 11 16 16 18 21 23 24 26 28 31 33 31 30 30 27 23 20 18 17 13 12 12 14 15 12 11 12 11 14 12 16 13 14 15 16 16 18
6 3 1 4 6 10 14 17 17 20 21 22 24 28 29 30 31 30 29 28 28 27 23 20 18 14 12 14 13 11 12 12 13 12 12 12 14 15 14 14 15 17 16 15
3 2 5 10 14 17 18 18 19 22 21 22 26 29 32 32 30 29 27 28 24 21 24 18 20 13 13 12 11 10 11 10 12 11 10 11 12 15 15 16 15 16 16 16
8 11 15 19 20 19 19 20 22 22 20 23 26 29 30 28 27 24 27 26 23 20 23 19 16 12 10 12 15 17 12 11 13 10 11 13 14 15 15 16 15 14 16 16
13 19 21 21 21 22 21 21 21 22 23 22 25 27 27 26 24 26 22 24 25 23 24 17 14 12 10 12 16 17 15 15 14 13 13 13 13 14 17 17 15 14 15 16
20 19 19 20 21 23 24 24 23 21 20 24 24 27 25 26 26 28 30 26 21 28 23 16 14 15 16 17 19 18 16 15 16 17 15 15 16 17 18 20 17 15 15 15
19 20 22 23 24 25 25 23 16 16 21 22 24 26 27 28 28 27 25 26 24 24 17 14 16 17 18 19 20 20 18 15 16 18 20 20 18 17 18 19 20 20 17 15
19 20 20 19 20 23 23 22 18 20 18 23 27 27 24 24 27 29 27 27 23 21 19 16 17 18 19 18 18 18 18 17 18 20 21 20 20 18 18 18 18 19 20 20
18 19 19 20 22 22 23 22 23 21 24 31 30 29 26 26 27 28 26 25 23 21 19 19 19 20 22 23 23 21 19 20 21 22 21 20 20 20 19 18 18 18 19 20
16 18 21 23 25 25 25 23 23 24 27 28 31 28 29 23 22 23 24 24 25 24 23 23 24 24 24 26 27 25 22 22 23 21 20 21 21 20 18 18 19 19 18 17

GFSNGP_850_spd_027.txt.gz
Wind_Speed
4 5 5 3 4 6 4 5 4 7 5 3 9 9 17 18 18 15 15 16 19 23 20 15 16 16 20 23 28 26 19 27 28 32 33 29 26 25 21 17 14 18 18 23
3 5 7 4 7 8 7 4 3 4 3 14 17 17 19 16 13 13 13 16 19 20 19 19 22 24 24 24 22 21 30 31 31 25 24 36 33 19 17 13 15 18 19 20
3 4 6 4 4 3 1 2 1 1 3 12 13 17 15 12 10 12 16 17 17 17 20 19 21 18 20 21 24 26 30 28 25 29 32 24 23 19 19 17 15 17 18 17
2 4 2 4 4 2 6 5 6 9 11 15 15 12 9 8 13 16 15 16 17 20 22 25 17 21 21 22 26 28 27 26 33 30 26 26 18 17 19 12 11 16 15 16
3 1 6 6 3 3 4 3 8 7 10 11 11 3 6 9 13 11 13 16 18 19 18 19 19 24 23 24 27 24 24 26 30 33 32 29 21 27 16 12 11 13 15 19
2 3 6 6 4 7 3 3 7 10 8 11 17 4 4 10 10 12 14 16 17 17 21 23 23 25 29 31 26 22 25 30 34 36 39 29 24 21 18 6 14 15 19 24
3 3 7 7 3 3 4 5 9 8 4 4 2 3 9 12 8 12 14 16 19 25 26 26 29 32 31 24 24 26 30 32 34 35 27 24 18 7 7 10 11 17 20 23
2 3 7 7 2 6 5 9 12 5 1 2 3 4 5 9 12 13 16 21 25 27 24 28 26 23 22 22 24 26 28 34 33 26 25 21 17 9 6 9 14 18 22 27
8 6 7 7 6 9 8 13 6 2 2 1 5 2 8 10 13 18 20 22 19 20 26 24 20 26 21 22 27 31 35 32 25 22 17 14 11 8 7 14 19 22 25 25
4 7 9 16 16 13 11 5 3 3 4 2 3 5 8 11 13 16 17 17 23 26 25 25 25 23 24 30 34 37 30 25 23 17 15 13 9 11 15 19 19 21 22 22
2 1 15 14 15 14 6 0 7 6 3 1 3 7 8 12 15 18 20 24 25 24 26 27 29 30 31 33 29 30 27 25 19 16 16 13 13 14 17 17 17 19 19 18
5 9 7 12 14 8 4 9 9 5 1 3 4 7 12 15 16 19 23 25 26 27 28 29 32 33 34 24 26 27 23 22 20 20 11 10 11 13 11 15 14 15 17 19
7 8 7 12 10 6 9 10 7 3 1 3 7 12 15 16 19 21 23 24 25 28 27 26 31 32 25 26 26 20 21 17 16 12 11 13 11 13 16 13 12 13 16 18
11 15 10 9 7 10 9 7 6 2 3 7 12 15 18 18 18 22 23 25 26 27 30 31 26 23 25 26 23 17 13 12 15 13 14 11 12 11 11 13 15 15 15 17
12 7 6 11 12 10 9 5 1 2 7 12 15 17 18 18 21 23 24 25 27 29 28 27 24 22 23 25 16 13 11 12 15 14 12 10 10 10 12 12 13 14 14 17
10 10 12 14 12 9 5 2 3 8 12 15 16 16 17 20 22 24 26 28 27 30 30 29 24 22 22 21 13 12 8 15 17 17 14 11 11 13 13 13 15 13 15 17
19 15 16 11 7 3 0 5 9 13 18 17 16 18 19 22 24 26 29 31 29 28 26 23 22 21 20 20 14 14 13 15 14 15 12 11 11 15 13 16 13 15 15 17
14 12 10 9 5 3 6 11 15 18 16 17 18 19 21 24 28 31 30 31 30 28 22 17 21 21 19 20 14 14 17 19 15 11 12 12 12 13 15 15 14 15 15 18
13 11 6 3 3 7 12 15 15 15 17 18 18 20 23 25 28 28 27 26 27 29 22 19 23 21 21 14 15 16 18 13 12 13 13 11 11 12 13 14 15 17 15 16
9 5 1 5 9 13 13 13 15 17 18 18 18 21 23 24 26 25 24 26 26 23 24 24 25 22 21 13 13 12 14 14 11 12 11 11 11 12 14 14 17 17 16 15
1 5 10 14 14 14 14 16 18 19 18 17 19 19 22 26 26 23 25 31 30 23 25 25 29 22 18 14 14 15 15 17 15 14 14 15 15 15 15 15 13 19 18 16
9 12 13 13 14 17 17 18 20 22 22 21 16 19 23 28 29 29 27 27 30 27 25 25 31 19 16 15 16 18 19 21 20 16 17 16 15 15 16 17 19 18 17 16
12 12 14 16 18 20 21 21 19 19 18 17 16 20 22 28 28 28 32 29 30 28 27 27 25 16 17 18 20 21 21 21 22 20 18 18 18 19 20 20 19 19 19 17
16 17 17 16 16 15 19 21 21 19 21 19 18 20 23 30 31 25 25 31 30 28 26 24 22 18 19 23 24 24 23 22 19 19 18 19 20 22 21 21 21 20 19 18
14 14 15 15 16 20 23 25 26 25 24 22 23 22 25 27 25 28 25 24 24 24 24 24 22 20 20 20 22 25 25 24 22 19 19 20 21 22 21 19 19 21 21 19
16 15 14 16 20 24 27 26 27 27 27 27 27 25 28 29 24 20 21 21 23 23 23 23 22 22 24 24 24 25 26 27 25 22 22 22 22 22 22 22 21 19 20 21
16 18 20 23 27 26 25 25 27 26 26 27 28 26 24 27 19 20 21 23 24 24 24 25 24 24 25 25 25 27 26 27 27 25 21 21 21 20 18 20 21 19 20 22

GFSNGP_850_spd_030.txt.gz
Wind_Speed
1 3 1 1 2 1 4 4 5 6 6 5 7 9 15 13 9 7 7 10 12 14 10 11 13 15 13 15 19 19 20 20 28 27 30 30 26 26 32 33 20 13 16 17
3 6 6 3 5 5 4 4 4 8 6 4 13 15 12 9 6 7 9 9 9 9 13 14 17 12 11 16 20 23 24 27 26 26 30 29 30 30 33 24 15 8 16 15
3 4 5 6 5 3 1 2 4 5 6 9 6 10 10 7 4 4 5 8 11 14 13 11 10 11 17 21 23 24 25 25 25 27 30 34 33 29 31 23 17 9 9 14
3 3 1 5 5 4 9 4 8 11 8 9 10 9 9 3 5 5 6 9 10 7 10 12 15 19 19 21 21 18 18 23 27 31 33 36 37 23 26 23 21 13 8 13
3 3 5 4 4 5 5 5 4 9 10 8 11 14 5 2 3 4 7 5 6 10 14 17 20 22 25 24 21 22 26 30 32 31 34 34 29 24 21 17 8 4 12 14
2 4 6 5 2 7 7 5 14 13 13 7 10 2 4 2 2 3 2 4 10 16 20 24 29 29 30 23 20 24 30 27 28 34 29 25 20 15 8 5 3 9 12 16
2 2 7 7 5 7 5 7 17 13 11 7 4 3 4 1 3 2 5 11 15 16 19 24 24 21 21 22 27 26 23 28 32 25 22 18 15 13 9 6 8 9 14 19
3 2 7 12 4 7 6 14 17 14 10 5 3 4 2 2 1 4 7 10 13 17 20 21 18 23 27 27 26 26 31 32 26 23 19 14 13 6 5 3 8 14 17 18
9 6 7 16 8 15 15 17 18 12 8 6 8 6 3 2 2 6 10 14 17 21 22 19 22 24 25 26 27 32 28 25 23 20 15 12 10 9 6 10 15 16 16 17
3 5 12 16 12 13 14 13 13 7 7 9 10 6 4 2 7 11 15 19 21 22 22 22 23 26 29 31 32 28 23 24 21 18 14 11 10 10 12 15 14 14 14 15
4 2 5 11 13 15 13 9 7 11 11 10 8 5 3 6 10 14 17 20 20 21 22 23 24 26 29 32 30 21 23 20 18 17 15 9 7 8 12 13 14 12 13 15
5 11 9 8 20 17 13 11 13 17 12 7 4 3 6 11 14 17 20 19 20 21 24 24 25 28 28 24 23 25 21 16 15 13 12 7 7 8 11 13 9 10 13 14
11 13 13 8 18 14 14 16 15 12 7 6 2 6 12 17 18 19 18 19 20 23 25 26 28 27 22 22 25 21 15 13 9 10 11 14 10 11 12 8 8 9 12 14
12 12 13 20 12 16 14 17 14 10 6 2 6 12 16 17 18 18 19 21 23 25 27 27 27 26 19 19 20 18 12 10 11 13 13 14 12 10 9 12 11 13 13 14
17 12 8 16 20 17 16 17 13 8 2 6 11 16 17 17 18 19 21 23 26 27 28 28 26 24 20 19 18 17 13 13 11 11 15 15 12 10 11 12 11 14 13 14
18 10 16 18 19 21 17 11 5 2 7 11 16 16 16 17 19 20 22 25 26 28 28 25 21 19 20 19 19 17 14 13 14 13 14 14 12 11 12 13 14 10 12 15
24 18 20 21 16 11 6 1 3 7 12 16 16 15 17 18 20 22 23 24 23 26 25 17 19 18 21 20 19 19 15 14 14 17 20 17 14 13 13 13 14 13 13 14
19 20 16 13 8 2 4 5 9 13 15 15 15 16 16 17 20 22 24 24 25 24 20 15 17 20 21 20 19 18 15 16 18 17 15 14 14 15 14 14 13 14 15 14
18 15 11 5 3 2 6 10 12 13 13 14 16 16 16 16 18 22 24 25 26 27 26 20 20 20 22 20 19 16 16 12 12 12 14 12 12 12 13 14 14 14 16 15
14 10 6 2 4 8 9 10 12 13 14 16 17 17 18 15 18 22 24 26 25 24 26 24 25 20 23 21 19 17 15 15 14 14 13 15 14 15 15 15 15 16 16 15
5 3 7 10 9 9 10 11 14 16 16 17 20 21 18 17 18 22 28 32 28 21 26 27 27 25 27 20 18 18 18 17 18 18 18 17 18 17 17 17 17 17 18 19
8 10 11 11 12 12 13 14 14 15 17 18 18 19 18 21 21 25 28 30 27 24 27 29 29 26 24 19 18 19 20 21 21 21 22 22 20 21 19 17 19 19 19 18
11 11 13 13 13 13 11 11 15 17 19 20 21 22 23 25 24 26 32 31 29 25 27 27 26 25 23 20 20 22 23 24 25 24 24 25 22 21 22 22 22 22 21 18
12 12 11 11 11 11 15 17 20 21 22 23 24 22 24 27 28 24 27 30 25 23 23 24 24 23 23 22 22 23 26 28 28 29 26 24 21 21 22 23 24 24 23 22
14 14 14 12 13 16 20 24 27 26 26 26 27 23 24 26 26 26 27 24 21 22 25 22 23 22 21 22 23 24 25 26 27 28 28 26 25 23 22 22 23 22 21 22
16 14 15 17 20 23 25 26 27 27 29 30 30 25 25 27 26 23 23 22 21 24 24 22 22 22 23 24 24 26 27 26 27 28 29 29 27 23 23 21 19 19 19 19
16 19 22 24 25 28 28 28 31 29 31 34 33 28 27 25 20 20 21 20 23 21 22 23 23 22 23 24 24 24 26 28 28 26 26 28 26 22 19 19 17 17 18 18

GFSNGP_850_spd_036.txt.gz
Wind_Speed
2 3 2 2 4 6 7 5 6 4 7 6 9 8 17 21 18 14 9 6 4 4 3 5 4 7 8 7 12 18 21 22 16 17 20 26 30 29 32 32 26 20 21 20
2 3 5 3 6 7 5 3 7 4 8 6 7 14 18 20 17 13 9 6 7 5 4 4 4 4 8 14 19 19 19 16 17 20 26 26 29 34 31 27 23 16 18 18
4 4 5 6 9 9 5 5 7 6 8 8 4 15 24 21 17 12 9 10 8 6 4 3 4 8 13 17 19 19 17 15 19 24 23 28 32 30 27 27 20 10 13 15
2 3 2 6 2 5 8 5 7 2 4 14 12 18 21 18 15 12 13 12 8 6 5 5 8 11 14 17 19 18 15 20 22 24 28 31 29 26 23 22 14 11 8 6
3 3 6 5 5 6 7 7 8 7 4 9 11 12 12 18 15 11 12 8 7 7 6 8 10 13 16 19 19 18 18 22 25 28 31 29 26 24 21 17 9 6 7 9
3 4 6 6 3 4 4 5 7 13 12 14 15 3 7 20 16 12 8 9 9 8 8 9 13 16 19 19 18 18 21 24 28 29 27 24 22 20 19 14 13 6 9 11
2 3 8 7 3 4 5 7 8 18 23 24 8 14 5 9 17 13 13 13 9 7 8 12 16 17 17 17 18 21 23 26 27 24 23 22 20 16 14 10 8 7 11 17
3 2 7 8 4 7 6 7 9 19 24 31 24 12 8 13 12 12 13 10 8 8 11 15 17 16 17 19 21 23 26 26 24 20 21 20 18 13 13 12 9 12 16 17
8 6 5 13 7 15 6 6 9 17 22 27 21 14 15 16 14 14 12 8 7 11 15 16 17 18 20 20 23 26 26 23 20 19 20 19 16 13 13 13 13 15 16 14
2 5 11 19 21 23 13 15 13 13 19 20 22 17 18 13 16 12 8 7 11 15 16 17 18 19 21 23 25 25 23 20 21 21 20 19 15 13 14 14 14 14 14 13
5 12 13 20 19 22 25 20 14 13 17 18 16 18 14 12 9 5 7 11 14 16 17 18 19 21 24 26 26 24 21 21 19 18 19 17 13 12 12 13 15 15 13 12
6 13 8 13 15 13 15 17 17 18 17 16 15 12 8 6 3 8 11 13 15 16 18 19 22 23 25 24 22 21 20 21 20 18 19 16 14 15 14 15 16 14 13 13
8 9 14 17 17 16 15 12 14 15 16 16 15 9 7 2 8 10 12 13 15 17 19 21 23 24 23 21 18 17 20 21 21 19 18 17 18 17 18 15 16 13 14 13
16 15 14 13 9 7 11 13 15 18 20 14 9 8 2 9 9 11 12 14 15 17 19 21 23 24 20 17 18 17 20 21 21 20 19 19 19 18 18 17 16 13 11 14
12 6 9 6 5 9 12 20 26 20 13 15 5 4 9 9 10 12 14 14 16 17 19 20 22 22 20 17 18 20 22 22 20 21 19 18 17 18 18 16 17 17 14 13
7 3 6 11 16 18 21 16 17 17 9 1 5 8 10 11 12 13 13 15 17 16 17 20 22 22 22 19 20 23 22 22 20 20 21 19 18 20 21 21 19 20 19 14
9 14 18 21 21 18 19 15 11 4 4 5 9 9 10 13 14 15 15 16 17 17 18 21 25 23 22 21 23 23 23 23 20 23 21 20 20 22 20 18 19 20 17 16
12 17 20 20 18 17 11 7 2 4 8 9 9 11 13 16 18 18 18 19 19 18 17 21 23 23 23 23 24 22 23 25 24 22 21 19 17 16 17 19 19 21 20 18
22 21 19 17 12 8 3 4 6 7 8 10 13 15 17 17 19 20 22 23 23 24 23 24 24 25 26 24 23 24 23 23 22 21 21 21 19 17 17 16 18 18 19 20
16 14 10 6 3 3 5 6 8 9 11 13 14 14 17 17 19 22 23 27 26 26 26 28 28 27 25 23 23 24 23 23 22 22 21 22 23 22 22 21 21 20 19 21
7 4 2 2 4 6 8 9 8 7 7 11 15 19 23 26 26 26 29 31 31 27 28 29 30 27 25 24 24 23 23 24 23 22 23 24 23 23 22 23 23 24 24 22
5 5 6 7 7 7 7 7 8 11 15 18 20 22 26 30 30 30 30 29 30 28 29 31 29 24 25 26 25 24 22 23 24 22 22 24 26 28 29 30 30 28 26 25
8 8 8 8 9 9 8 10 13 17 21 24 27 28 29 31 32 30 35 32 28 27 28 27 26 25 26 27 25 22 22 21 23 24 25 24 25 25 25 26 26 25 26 26
7 8 7 8 8 11 15 18 21 24 27 30 31 30 29 33 37 34 32 29 27 29 29 27 24 24 27 26 24 23 22 22 23 24 25 25 25 26 27 26 24 23 24 25
7 7 9 13 16 19 23 26 29 31 33 35 35 33 30 27 28 35 32 27 26 24 24 25 25 25 27 24 23 23 23 23 24 26 26 24 27 26 27 24 24 24 22 20
7 10 14 17 19 22 25 28 30 31 32 34 35 31 32 30 30 26 23 25 23 24 26 25 23 26 23 22 21 21 21 21 21 22 22 22 24 24 23 23 23 25 19 15
12 16 20 22 23 25 26 28 30 32 31 30 33 33 31 29 28 27 26 24 26 29 25 21 22 21 20 19 18 17 18 18 19 20 20 19 19 20 21 22 22 15 12 12